Location: Unspecified
(0.0000°N, 0.0000°E)
Time: 08:48:47
(UTC+00:00)

deb r/b Ablestar - Pass Details

Date: 19 February 2026
Orbit: 902 x 2195 km, 67.6° (Epoch: 14 March)

Event Time Altitude Azimuth Distance (km) Brightness Sun altitude
Rises 19:18:35 0° 206° (SSW) 4,774 ? -15.9°
Reaches altitude 10° 19:21:58 10° 209° (SSW) 3,593 ? -16.7°
Maximum altitude 19:30:15 59° 286° (WNW) 1,354 ? -18.7°
Drops below altitude 10° 19:36:39 10° 5° (N) 2,801 ? -20.3°
Sets 19:39:01 0° 10° (N) 3,658 ? -20.9°
